{"data":{"norad_id":53576,"epoch":"2026-05-25T04:02:08.947968Z","epoch_age_seconds":56428,"freshness":"FRESH","line1":"1 53576U 22101BB  26145.16815912 -.00000390  00000+0 -64124-5 0  9998","line2":"2 53576  53.2135  70.5932 0001332  92.0311 268.0834 15.08844497208818","mean_motion":15.08844497,"eccentricity":0.0001332,"inclination_deg":53.2135,"raan_deg":70.5932,"arg_perigee_deg":92.0311,"mean_anomaly_deg":268.0834,"bstar":-6.4124e-6,"rev_number":20881,"period_min":95.437270233156,"perigee_km":538.80818363138,"apogee_km":540.65110330521,"semimajor_km":6917.8666434683,"source":"CELESTRAK","updated_at":"2026-05-25T13:38:17.472500Z"}}